Montpelier, VT

10:30 AM EST on December 11, 2019 (GMT -0500)
Knapp State

Weather History for KMPV - July, 2019

Change the Weather History Date:

Friday, July 12, 2019

  Actual Average Record
Temperature  
Mean Temperature 69 °F 67 °F  
Max Temperature 80 °F 79 °F 91 °F (1987)
Min Temperature 58 °F 56 °F 43 °F (1985)
Degree Days  
Heating Degree Days 0 1  
Month to date heating degree days 6 18  
Since 1 June heating degree days 150 139  
Since 1 July heating degree days 6 18  
Cooling Degree Days 4 4  
Month to date cooling degree days 46 38  
Year to date cooling degree days 66 101  
Since 1 June cooling degree days 65 91  
Growing Degree Days 22 (Base 50)    
Moisture  
Dew Point 64 °F    
Average Humidity 81    
Maximum Humidity 100    
Minimum Humidity 62    
Precipitation  
Precipitation 0.14 in 0.13 in 1.45 in (2006)
Month to date precipitation 1.11 1.46  
Year to date precipitation 26.04 18.17  
Sea Level Pressure  
Sea Level Pressure 29.78 in    
Wind  
Wind Speed 4 mph (NW)    
Max Wind Speed 18 mph    
Max Gust Speed 23 mph    
Visibility 8 miles    
Events Fog , Rain , Thunderstorm    
T = Trace of Precipitation, MM = Missing Value Source: NWS Daily Summary

Daily Weather History Graph

Daily Weather History Graph

Search for Another Location

Airport or City:

Astronomy

Jul. 12, 2019 Rise Set
Actual Time 5:17 AM EDT 8:33 PM EDT
Civil Twilight 4:42 AM EDT 9:08 PM EDT
Nautical Twilight 3:56 AM EDT 9:54 PM EDT
Astronomical Twilight 2:59 AM EDT 10:50 PM EDT
Moon 4:46 PM EDT (7/12) 2:04 AM EDT (7/12)
Length of Visible Light 16h 26m
Length of Day
15h 15m
Waxing Gibbous, 82% of the Moon is Illuminated
Jul 12
Waxing Gibbous
Jul 16
Full
Jul 24
Last Quarter
Jul 31
New
Aug 7
First Quarter

Hourly Weather History & Observations

Time (EDT) Temp. Dew Point Humidity Pressure Visibility Wind Dir Wind Speed Gust Speed Precip Events Conditions
12:18 AM 66.0 °F 64.9 °F 96% 29.83 in 6.0 mi WSW 5.8 mph - 0.12 in Rain , Thunderstorm Light Rain
12:25 AM 66.0 °F 64.0 °F 93% 29.82 in 9.0 mi Variable 3.5 mph - 0.12 in Rain Light Rain
12:51 AM 64.9 °F 64.0 °F 97% 29.81 in 10.0 mi SSE 4.6 mph - 0.14 in Rain Light Rain
1:51 AM 64.0 °F 63.0 °F 96% 29.79 in 9.0 mi SSW 3.5 mph - 0.13 in Rain Light Rain
2:51 AM 64.0 °F 63.0 °F 96% 29.77 in 10.0 mi Calm Calm - 0.01 in   Scattered Clouds
3:28 AM 64.0 °F 63.0 °F 96% 29.78 in 10.0 mi Calm Calm - N/A   Overcast
3:51 AM 64.0 °F 63.0 °F 96% 29.76 in 10.0 mi Calm Calm - N/A   Overcast
4:51 AM 64.9 °F 63.0 °F 93% 29.75 in 10.0 mi Calm Calm - N/A   Overcast
5:51 AM 64.0 °F 63.0 °F 96% 29.75 in 10.0 mi Calm Calm - N/A   Mostly Cloudy
6:00 AM 64.0 °F 64.0 °F 100% 29.76 in 1.5 mi East 3.5 mph - 0.00 in Rain Light Rain
6:02 AM 64.0 °F 64.0 °F 100% 29.76 in 0.8 mi ENE 3.5 mph - 0.01 in Rain Light Rain
6:14 AM 64.0 °F 64.0 °F 100% 29.77 in 0.2 mi Calm Calm - 0.01 in Fog , Rain Light Rain
6:35 AM 64.0 °F 64.0 °F 100% 29.77 in 0.2 mi Calm Calm - 0.01 in Fog Fog
6:51 AM 64.0 °F 64.0 °F 100% 29.76 in 0.8 mi Calm Calm - 0.01 in   Overcast
6:56 AM 64.0 °F 64.0 °F 100% 29.77 in 1.2 mi Calm Calm - N/A   Overcast
7:01 AM 64.0 °F 64.0 °F 100% 29.77 in 2.0 mi Calm Calm - N/A   Overcast
7:09 AM 64.0 °F 64.0 °F 100% 29.77 in 8.0 mi Calm Calm - N/A   Overcast
7:51 AM 64.0 °F 64.0 °F 100% 29.76 in 7.0 mi Calm Calm - 0.00 in Rain Light Rain
8:43 AM 64.9 °F 64.9 °F 100% 29.77 in 10.0 mi Calm Calm - 0.00 in   Overcast
8:51 AM 64.9 °F 64.9 °F 100% 29.76 in 10.0 mi Calm Calm - 0.00 in   Overcast
9:13 AM 64.9 °F 64.9 °F 100% 29.77 in 10.0 mi Calm Calm - N/A   Overcast
9:51 AM 66.9 °F 66.0 °F 97% 29.77 in 10.0 mi Calm Calm - N/A   Overcast
10:19 AM 69.1 °F 66.0 °F 90% 29.78 in 10.0 mi Calm Calm - N/A   Overcast
10:42 AM 70.0 °F 66.9 °F 90% 29.78 in 10.0 mi Calm Calm - N/A   Mostly Cloudy
10:51 AM 71.1 °F 68.0 °F 90% 29.77 in 10.0 mi Calm Calm - N/A   Mostly Cloudy
11:04 AM 72.0 °F 68.0 °F 87% 29.78 in 10.0 mi North 4.6 mph - N/A   Mostly Cloudy
11:51 AM 75.9 °F 66.9 °F 74% 29.77 in 10.0 mi North 5.8 mph - N/A   Scattered Clouds
12:51 PM 77.0 °F 66.0 °F 69% 29.76 in 10.0 mi NNW 6.9 mph - N/A   Scattered Clouds
1:51 PM 79.0 °F 66.0 °F 64% 29.75 in 10.0 mi Variable 4.6 mph - N/A   Partly Cloudy
2:51 PM 78.1 °F 64.9 °F 64% 29.75 in 10.0 mi NW 9.2 mph - N/A   Mostly Cloudy
3:51 PM 77.0 °F 64.0 °F 64% 29.75 in 10.0 mi WNW 10.4 mph - N/A   Scattered Clouds
4:51 PM 75.0 °F 64.9 °F 71% 29.77 in 10.0 mi WNW 16.1 mph 23.0 mph N/A   Mostly Cloudy
5:51 PM 71.1 °F 64.0 °F 78% 29.78 in 10.0 mi NW 13.8 mph 21.9 mph N/A   Overcast
6:51 PM 70.0 °F 64.0 °F 81% 29.80 in 10.0 mi NW 10.4 mph - N/A   Overcast
7:51 PM 70.0 °F 64.0 °F 81% 29.82 in 10.0 mi NW 8.1 mph - N/A   Mostly Cloudy
8:51 PM 68.0 °F 64.0 °F 87% 29.83 in 10.0 mi NW 8.1 mph - N/A   Mostly Cloudy
9:51 PM 66.9 °F 62.1 °F 84% 29.87 in 10.0 mi NNW 5.8 mph - N/A   Scattered Clouds
10:51 PM 64.9 °F 61.0 °F 87% 29.88 in 10.0 mi Calm Calm - N/A   Clear
11:51 PM 62.1 °F 60.1 °F 93% 29.88 in 10.0 mi Calm Calm - N/A   Clear